Starlink 37326

operational
NORAD ID: 68543 Int'l Des: 2026-070 Owner: SPXS Country: US Constellation: starlink
LEOCIRCULAR

Über Starlink 37326

Beschreibung wird geladen...

Live-Position

3D-Globus wird geladen...

Nächste Überflüge

Höhenverlauf

Altitude vs Time

uPlot chart will show altitude changes over time

Zweizeiliger Elementsatz

1 68543C 26070A 26093.74423611 .01099200 00000+0 13680-2 0 934
2 68543 53.1618 260.4086 0009362 282.5296 109.2994 16.06361380 11
Epoch: 3. Apr. 2026 • Age: 30 hours

Aktueller Status

Höhe 259.3 km
Geschwindigkeit 7.75 km/s
Subsatellitenpunkt 26.21°N, 129.43°E
Startdatum 2. Apr. 2026
Alter 1 days
Typ internet

Technische Details

Klassifizierung Payload
Masse 575.00 kg
Trockenmasse 530.00 kg
Gesamtmasse 575.00 kg
Länge 0.30 m
Durchmesser 4.10 m
Spannweite 29.00 m
Form Box + pan
Hersteller SPXS
Bus-Typ Starlink V2MO
Phasenstatus In Orbit
Besitzer/Staat SPXS/US

Große Konstellationen

Loading constellations...